This is the latest recevied weather packets stored in our database for station/object W4SNA-4. If no packets are shown the sender has not sent any weather packets the latest 1 day(s).
| Time | Temp. | Humidity | Pressure | Rain* | Wind** | Luminosity | Snow |
|---|---|---|---|---|---|---|---|
| 1778086510 | 20° C | 76% | 1009.5 hPa | 0 mm | - | - | - |
| 1778085610 | 20.56° C | 74% | 1009.2 hPa | 0 mm | - | - | - |
| 1778085014 | 20.56° C | 74% | 1009.1 hPa | 0 mm | - | - | - |
| 1778083212 | 20.56° C | 71% | 1009 hPa | 0 mm | - | - | - |
| 1778082610 | 20° C | 73% | 1008.5 hPa | 0 mm | - | - | - |
| 1778082311 | 20° C | 75% | 1008.5 hPa | 0 mm | - | - | - |
| 1778081290 | 19.44° C | 76% | 1008 hPa | 0 mm | - | - | - |
| 1778080390 | 18.89° C | 78% | 1008 hPa | 0 mm | - | - | - |
| 1778079796 | 18.89° C | 78% | 1008.2 hPa | 0 mm | - | - | - |
| 1778079490 | 18.33° C | 79% | 1008.2 hPa | 0 mm | - | - | - |
| 1778078894 | 18.33° C | 80% | 1008.4 hPa | 0 mm | - | - | - |
| 1778078110 | 17.78° C | 79% | 1008.5 hPa | 0 mm | - | - | - |
| 1778077210 | 17.78° C | 80% | 1008.5 hPa | 0 mm | - | - | - |
| 1778076609 | 17.78° C | 79% | 1008.5 hPa | 0 mm | - | - | - |
| 1778075709 | 17.78° C | 80% | 1008.4 hPa | 0 mm | - | - | - |
| 1778074816 | 17.22° C | 80% | 1008 hPa | 0 mm | - | - | - |
| 1778073309 | 17.22° C | 79% | 1008.4 hPa | 0 mm | - | - | - |
| 1778073010 | 17.22° C | 80% | 1008.4 hPa | 0 mm | - | - | - |
| 1778071809 | 17.22° C | 79% | 1008.4 hPa | 0 mm | - | - | - |
| 1778071512 | 16.67° C | 80% | 1008.4 hPa | 0 mm | - | - | - |
| 1778070909 | 16.67° C | 80% | 1008.7 hPa | 0 mm | - | - | - |
| 1778070610 | 16.67° C | 80% | 1008.7 hPa | 0 mm | - | - | - |
| 1778069911 | 16.67° C | 80% | 1008.9 hPa | 0 mm | - | - | - |
| 1778069007 | 16.67° C | 79% | 1008.7 hPa | 0 mm | - | - | - |
| 1778068407 | 16.67° C | 79% | 1008.5 hPa | 0 mm | - | - | - |
* Rain latest hour (hover to see other rain measurements)
** Current wind speed in m/s (hover to see current wind gust speed)